Date,TemperatureHighF,TemperatureAvgF,TemperatureLowF,DewpointHighF,DewpointAvgF,DewpointLowF,HumidityHigh,HumidityAvg,HumidityLow,PressureMaxIn,PressureMinIn,WindSpeedMaxMPH,WindSpeedAvgMPH,GustSpeedMaxMPH,PrecipitationSumIn
2013-1-1,69,43,31,39,32,27,95,72,26,29.96,29.87,6,1,43,0.00
2013-1-2,66,40,27,40,32,25,94,76,39,29.92,29.81,5,0,6,0.00
2013-1-3,66,41,28,41,33,26,94,76,34,29.95,29.83,3,0,7,0.01
2013-1-4,69,44,31,44,36,30,94,77,39,29.97,29.85,4,0,6,0.00
2013-1-5,48,41,32,46,39,30,97,92,80,29.93,29.74,3,0,4,0.37
2013-1-6,62,47,36,48,43,35,96,85,54,29.88,29.75,4,1,6,0.05
2013-1-7,67,47,35,51,42,33,97,84,55,29.93,29.83,4,0,5,0.00
2013-1-8,68,48,37,54,43,36,97,86,56,29.93,29.81,3,0,5,0.01
2013-1-9,52,45,36,48,41,32,96,86,68,29.85,29.67,9,1,14,0.02
2013-1-10,56,42,29,39,32,27,95,72,40,30.52,29.76,10,3,18,0.01
2013-1-11,60,44,32,39,34,28,88,69,43,29.92,29.79,6,2,10,0.00
2013-1-12,60,41,29,37,31,26,93,70,35,29.92,29.81,4,1,7,0.00
2013-1-13,62,38,24,35,27,12,92,69,27,29.93,29.85,7,1,10,0.00
2013-1-14,65,42,27,33,27,9,86,60,23,30.06,29.89,9,1,11,0.00
2013-1-15,62,40,27,37,30,24,92,71,32,30.15,30.06,4,1,8,0.00
2013-1-16,69,42,27,41,32,25,93,73,36,30.12,29.94,4,0,5,0.00
2013-1-17,72,42,27,43,33,26,94,75,29,29.95,29.82,3,0,4,0.00
2013-1-18,73,43,26,42,33,24,93,73,26,29.90,29.81,3,0,4,0.00
2013-1-19,76,45,27,44,35,25,93,72,29,29.92,29.82,3,0,5,0.00
2013-1-20,64,38,27,41,33,25,93,83,40,30.64,29.84,2,0,4,0.00
2013-1-21,73,45,28,43,35,26,93,73,30,29.96,29.85,4,0,6,0.01
2013-1-22,68,46,30,43,37,28,94,73,36,29.89,29.75,4,0,5,0.00
2013-1-23,52,49,44,49,46,39,97,89,77,29.88,29.73,3,0,4,0.40
2013-1-24,63,54,49,57,51,48,98,91,77,29.99,29.85,3,0,6,0.02
2013-1-25,65,55,46,56,52,45,98,89,68,30.00,29.84,3,0,5,0.00
2013-1-26,62,50,38,50,41,34,97,73,40,30.56,29.75,10,2,14,0.01
2013-1-27,62,47,35,37,35,32,91,66,35,29.96,29.84,8,3,13,0.00
2013-1-28,62,49,36,41,38,32,90,67,44,30.07,29.93,9,3,14,0.00
2013-1-29,71,54,44,44,40,36,80,62,37,30.14,30.05,8,3,14,0.00
2013-1-30,75,54,40,49,42,36,88,67,35,30.85,30.02,8,2,8,0.00
2013-1-31,75,50,33,48,40,32,95,73,33,30.08,29.95,5,1,7,0.00
2013-2-1,76,51,34,51,42,32,95,73,38,30.00,29.88,5,1,7,0.00
2013-2-2,68,48,39,52,43,36,97,84,56,30.09,29.99,5,1,8,0.00
2013-2-3,70,51,39,50,44,37,95,80,47,30.04,29.91,5,1,6,0.00
2013-2-4,60,47,39,51,43,36,97,88,70,29.96,29.85,6,1,8,0.00
2013-2-5,65,51,44,50,45,38,95,79,52,29.94,29.83,8,1,14,0.02
2013-2-6,67,49,33,46,39,31,94,73,39,29.99,29.87,6,1,9,0.00
2013-2-7,60,48,36,51,40,33,95,76,38,29.93,29.77,7,1,12,0.09
2013-2-8,64,46,33,39,35,28,95,69,27,29.80,29.71,8,2,14,0.01
2013-2-9,68,47,34,37,31,24,87,59,21,29.88,29.78,5,1,8,0.00
2013-2-10,72,46,30,42,34,27,91,67,29,29.89,29.77,5,1,8,0.00
2013-2-11,75,51,37,42,35,27,89,61,19,30.01,29.86,6,1,9,0.00
2013-2-12,69,48,32,46,38,30,92,72,38,30.14,30.01,6,1,10,0.00
2013-2-13,74,49,32,48,39,30,93,73,37,30.11,29.98,6,1,9,0.00
2013-2-14,77,52,36,52,41,34,94,72,37,30.03,29.91,7,1,9,0.00
2013-2-15,79,53,35,48,40,33,94,68,25,30.05,29.97,5,1,8,0.00
2013-2-16,78,53,38,49,42,36,91,70,27,30.03,29.82,8,1,9,0.00
2013-2-17,72,50,35,46,39,34,96,71,32,29.83,29.73,10,1,11,0.00
2013-2-18,59,46,35,45,39,32,96,80,58,29.80,29.68,6,1,8,0.00
2013-2-19,55,44,36,46,36,-4,95,76,45,29.73,29.51,12,2,16,0.13
2013-2-20,64,49,37,38,34,30,81,60,31,29.84,29.62,10,4,15,0.00
2013-2-21,69,52,41,38,34,24,77,53,21,29.95,29.82,8,3,11,0.00
2013-2-22,70,53,36,45,39,32,86,62,31,30.02,29.93,6,2,9,0.00
2013-2-23,64,52,41,41,34,26,85,54,23,30.05,29.94,10,4,16,0.00
2013-2-24,77,52,38,37,31,14,79,52,11,30.05,29.91,6,2,9,0.00
2013-2-25,76,52,35,43,32,9,89,58,10,30.04,29.91,13,2,18,0.00
2013-2-26,79,54,39,38,31,16,79,51,10,30.00,29.88,6,2,9,0.00
2013-2-27,76,54,33,48,37,27,88,59,19,30.14,29.98,7,2,11,0.00
2013-2-28,79,60,46,56,49,43,90,71,41,30.22,30.12,7,1,11,0.00
2013-3-1,81,58,41,53,47,40,95,70,30,30.21,30.00,7,1,10,0.00
2013-3-2,75,58,46,54,49,44,91,72,45,30.03,29.83,5,1,8,0.00
2013-3-3,74,57,49,53,48,45,91,75,39,29.87,29.76,10,2,11,0.00
2013-3-4,65,50,40,50,44,36,93,83,58,29.93,29.83,6,1,9,0.00
2013-3-5,55,48,38,49,42,36,96,83,65,29.85,29.54,12,3,18,0.63
2013-3-6,60,49,37,49,43,35,95,81,46,29.84,29.57,14,4,20,0.35
2013-3-7,60,47,35,45,38,34,96,74,46,30.42,29.65,6,1,9,0.00
2013-3-8,70,52,36,43,37,33,91,62,27,29.81,29.61,9,3,15,0.00
2013-3-9,81,56,37,44,38,25,89,58,14,30.10,29.81,7,2,10,0.00
2013-3-10,78,55,37,47,38,22,90,62,14,30.12,30.00,7,2,9,0.00
2013-3-11,78,54,36,51,42,34,93,69,29,30.05,29.86,8,1,13,0.00
2013-3-12,80,57,41,56,46,38,96,72,37,29.94,29.83,8,2,11,0.00
2013-3-13,87,60,41,55,47,39,95,68,21,29.94,29.82,6,1,8,0.00
2013-3-14,78,58,45,58,48,32,92,72,21,29.95,29.85,5,1,7,0.00
2013-3-15,81,59,42,55,46,40,93,67,27,29.91,29.79,8,2,12,0.00
2013-3-16,81,59,40,50,40,21,93,58,12,29.92,29.78,11,3,23,0.04
2013-3-17,77,59,48,46,41,26,79,55,16,29.92,29.80,10,4,17,0.00
2013-3-18,73,55,39,49,43,36,91,67,35,29.89,29.78,6,2,9,0.00
2013-3-19,62,53,43,51,45,39,90,75,49,29.90,29.83,4,0,8,0.09
2013-3-20,66,54,46,57,50,45,96,88,69,29.92,29.83,6,2,11,0.33
2013-3-21,74,55,41,46,41,38,91,63,32,29.92,29.78,7,3,10,0.00
2013-3-22,75,56,44,39,33,20,71,47,15,29.91,29.80,7,4,12,0.00
2013-3-23,75,55,40,44,38,30,84,57,20,29.92,29.79,8,2,11,0.00
2013-3-24,46,44,43,41,40,39,86,84,81,29.86,29.85,0,0,2,0.00
2013-3-25,75,56,44,41,34,20,71,48,14,30.08,29.97,7,4,12,0.00
2013-3-26,75,56,40,42,37,30,85,53,20,30.10,29.97,8,2,11,0.00
2013-3-27,71,54,42,50,42,39,92,66,31,30.09,29.95,6,2,9,0.00
2013-3-28,70,56,49,58,51,47,94,85,63,30.05,29.96,3,0,7,0.01
2013-3-29,83,62,48,59,52,47,97,74,37,30.06,29.95,9,2,12,0.00
2013-3-30,72,58,52,58,52,48,93,79,52,30.04,29.95,8,2,11,0.05
2013-3-31,65,56,51,57,54,50,97,92,70,30.04,29.96,4,1,8,0.93
2013-4-1,71,58,49,60,53,46,99,85,58,30.12,30.02,8,1,13,0.06
2013-4-2,73,56,45,58,50,43,96,82,55,30.16,30.03,7,2,11,0.00
2013-4-3,78,59,50,59,51,48,95,79,46,30.84,29.93,7,2,11,0.00
2013-4-4,61,55,50,58,53,48,97,94,87,30.09,29.94,8,2,12,0.76
2013-4-5,70,59,52,56,53,49,98,82,56,30.16,30.06,7,2,11,0.01
2013-4-6,72,59,53,57,52,50,93,80,50,30.84,30.06,7,2,13,0.02
2013-4-7,70,58,50,58,51,44,95,79,52,30.14,29.77,10,3,16,0.05
2013-4-8,74,57,46,46,38,32,85,52,24,30.02,29.76,13,7,21,0.02
2013-4-9,84,63,44,44,40,31,83,48,17,30.08,29.98,8,2,11,0.00
2013-4-10,92,70,53,52,47,40,74,48,18,30.13,29.97,9,1,17,0.00
2013-4-11,92,67,46,52,42,32,70,45,18,30.18,29.93,13,4,19,0.00
2013-4-12,59,50,44,49,43,40,89,78,64,29.98,29.93,0,0,0,0.00
2013-4-18,63,52,44,49,43,40,89,73,51,29.81,29.73,0,0,0,0.00
2013-4-19,84,64,44,50,40,31,84,47,16,30.02,29.80,8,2,11,0.00
2013-4-20,92,70,46,52,47,36,74,48,18,30.07,29.75,10,1,17,0.00
2013-4-21,94,62,46,52,38,32,70,45,13,29.92,29.77,13,6,19,0.01
2013-4-22,97,72,52,56,45,26,82,48,10,29.86,29.71,2,0,10,0.00
2013-4-23,91,68,48,52,36,9,89,41,10,29.82,29.73,13,2,17,0.00
2013-4-24,68,55,46,51,47,44,93,76,53,29.86,29.73,8,2,14,0.00
2013-4-25,71,57,50,53,48,45,85,71,50,30.02,29.86,6,1,11,0.00
2013-4-26,76,57,45,57,49,42,91,76,49,30.13,30.02,6,1,13,0.00
2013-4-27,82,60,49,57,50,46,94,73,39,30.12,29.96,8,1,12,0.00
2013-4-28,93,66,42,58,50,40,92,62,25,29.96,29.75,4,0,9,0.00
2013-4-29,89,69,60,52,48,46,64,49,26,29.80,29.65,10,2,15,0.00
2013-4-30,92,72,56,47,39,26,63,36,10,29.77,29.66,6,1,15,0.00
2013-5-1,94,75,55,44,26,6,62,20,10,29.99,29.76,13,2,21,0.00
2013-5-2,98,72,46,87,36,22,78,38,10,30.04,29.94,5,0,10,0.00
2013-5-3,97,71,47,49,40,27,74,41,10,29.98,29.69,5,0,11,0.00
2013-5-4,96,68,49,54,44,27,84,54,10,29.69,29.44,9,1,15,0.00
2013-5-5,108,60,57,53,50,40,79,70,59,31.05,29.52,10,1,52,0.00
2013-5-6,76,62,50,54,51,47,90,68,41,29.87,29.71,7,0,13,0.00
2013-5-7,77,63,51,56,52,48,90,68,41,29.94,29.85,9,1,13,0.00
2013-5-8,72,58,52,56,51,48,92,79,57,30.03,29.93,7,1,11,0.00
2013-5-9,77,60,50,57,51,46,91,74,49,30.07,29.95,8,2,11,0.00
2013-5-10,79,63,53,59,53,48,88,72,48,30.08,29.97,8,2,15,0.00
2013-5-11,90,65,49,62,53,46,96,70,33,30.05,29.91,6,1,9,0.00
2013-5-12,87,66,47,63,53,46,97,68,39,30.04,29.89,8,1,11,0.00
2013-5-13,94,69,50,64,52,46,96,61,25,30.72,29.81,9,1,14,0.00
2013-5-14,93,71,52,56,48,30,83,50,12,29.87,29.74,10,2,14,0.00
2013-5-15,88,65,46,51,45,39,87,53,20,29.92,29.83,10,2,14,0.00
2013-5-16,80,67,56,54,50,44,76,57,34,29.90,29.80,9,1,14,0.00
2013-5-17,79,62,45,52,46,41,89,59,33,29.96,29.85,7,2,13,0.00
2013-5-18,87,66,44,51,45,37,89,54,20,30.01,29.93,11,3,14,0.00
2013-5-19,92,71,-11,50,42,-29,67,41,10,30.03,29.84,14,2,14,0.00
2013-5-20,95,73,53,53,44,28,78,44,10,29.90,29.77,7,1,13,0.00
2013-5-21,77,63,50,48,45,38,86,56,25,29.88,29.79,11,4,17,0.00
2013-5-29,95,92,82,52,35,28,34,14,10,30.13,30.03,7,3,11,0.00
2013-5-30,86,63,50,51,46,38,86,57,25,30.21,30.03,11,4,17,0.00
2013-5-31,92,72,55,51,44,26,67,42,10,30.29,30.12,13,3,14,0.00
2013-6-1,90,68,-11,54,46,-29,73,50,17,30.16,29.91,10,1,11,0.20
2013-6-2,91,74,58,55,50,45,72,44,25,29.92,29.77,8,3,11,0.00
2013-6-3,75,62,51,56,51,46,86,69,49,30.04,29.85,10,3,14,0.01
2013-6-4,72,61,53,56,52,49,86,74,55,30.12,30.01,10,3,12,0.00
2013-6-5,78,62,53,57,53,49,90,72,47,30.15,30.06,9,3,13,0.00
2013-6-6,84,63,52,60,53,-2,90,73,43,30.11,29.97,42,3,42,0.09
2013-6-7,99,72,52,64,56,50,93,63,28,30.05,29.85,6,2,9,0.00
2013-6-8,97,72,57,65,57,52,85,62,32,30.00,29.82,9,3,15,0.00
2013-6-9,72,61,0,58,54,23,85,74,59,30.05,29.99,10,3,11,0.09
2013-6-10,65,60,56,61,56,54,97,89,71,30.12,29.93,6,2,9,0.28
2013-6-11,86,67,52,61,56,50,95,69,40,30.14,30.01,7,1,10,0.00
2013-6-12,91,68,47,52,42,26,93,49,10,30.14,30.04,11,4,14,0.00
2013-6-13,91,71,55,47,43,28,59,39,13,30.24,30.13,11,4,17,0.00
2013-6-14,95,73,55,51,44,26,76,43,10,30.16,29.94,8,4,13,0.00
2013-6-15,86,66,48,56,50,44,88,61,32,30.13,29.98,11,2,13,0.00
2013-6-16,96,72,48,53,47,34,90,50,14,30.21,30.12,7,2,12,0.00
2013-6-17,91,70,50,56,51,45,84,54,25,30.23,30.11,7,2,12,0.00
2013-6-18,82,67,52,55,47,38,88,54,23,30.16,30.07,10,4,17,0.00
2013-6-19,85,68,51,50,45,38,80,49,20,30.20,30.11,9,4,15,0.00
2013-6-20,92,72,54,52,42,25,69,41,10,30.17,30.03,12,4,14,0.00
2013-6-21,98,74,49,54,43,28,84,41,11,30.13,30.00,7,2,11,0.00
2013-6-22,97,77,55,53,46,28,74,39,10,30.07,29.95,11,3,15,0.00
2013-6-23,75,66,58,62,57,52,88,74,56,29.99,29.93,6,3,11,0.00
2013-6-24,67,61,58,60,57,55,96,87,76,30.05,29.93,4,2,8,0.24
2013-6-25,67,63,-14,65,62,-15,98,96,92,30.15,30.02,7,2,10,1.38
2013-6-26,90,71,62,69,64,60,99,79,45,30.22,30.12,6,2,9,0.05
2013-6-27,97,77,59,69,63,57,97,66,34,30.25,30.13,6,2,8,0.00
2013-6-28,108,84,60,70,56,5,92,48,10,30.18,30.01,11,2,11,0.00
2013-6-29,110,86,62,66,58,41,83,45,11,30.06,29.91,7,2,11,0.00
2013-6-30,100,80,61,65,60,55,81,53,29,29.99,29.87,7,2,11,0.00
2013-7-1,103,80,58,67,60,54,86,56,27,29.98,29.91,7,2,11,0.00
2013-7-2,95,74,66,65,60,57,75,63,36,30.03,29.96,6,1,7,0.00
2013-7-4,105,92,77,68,53,34,51,29,10,29.91,29.79,10,5,19,0.00
2013-7-5,90,72,57,60,53,42,77,53,29,29.90,29.81,9,3,14,0.00
2013-7-6,85,66,54,61,55,50,87,68,43,29.95,29.86,8,3,11,0.00
2013-7-7,85,65,54,62,54,51,90,71,41,30.02,29.92,8,3,11,0.00
2013-7-8,86,66,53,62,54,50,91,71,40,30.14,30.02,8,3,11,0.00
2013-7-9,99,72,54,60,54,42,95,61,16,30.19,30.06,6,2,11,0.00
2013-7-10,84,64,52,60,53,47,92,70,29,30.15,30.03,9,3,20,0.00
2013-7-11,81,62,52,58,53,49,93,74,44,30.11,29.99,8,3,11,0.00
2013-7-12,84,65,54,60,54,51,90,71,44,30.85,29.99,8,2,12,0.00
2013-7-13,88,68,55,60,53,50,85,63,30,30.11,30.03,8,3,13,0.00
2013-7-14,83,64,53,59,54,50,92,72,41,30.16,30.02,9,3,11,0.00
2013-7-15,75,60,51,57,52,49,93,79,53,30.08,29.97,9,3,13,0.00
2013-7-16,76,62,54,61,54,52,93,79,59,30.18,30.02,7,2,11,0.00
2013-7-17,86,66,52,62,56,49,92,73,44,30.25,30.15,7,2,11,0.00
2013-7-18,87,67,55,62,56,52,94,71,39,30.21,30.06,11,3,11,0.00
2013-7-19,92,67,53,64,55,50,95,70,35,30.10,29.94,8,2,14,0.00
2013-7-20,90,67,52,63,55,48,94,70,37,30.00,29.85,9,3,12,0.00
2013-7-21,87,66,54,61,54,50,91,69,36,30.05,29.90,8,3,14,0.00
2013-7-22,91,68,51,61,55,48,91,67,28,30.12,30.03,8,2,14,0.00
2013-7-23,82,70,60,61,57,53,84,65,40,30.15,30.08,6,2,9,0.00
2013-7-24,90,70,56,64,56,53,91,66,35,30.14,30.03,9,3,14,0.00
2013-7-25,84,66,55,60,55,52,91,70,42,30.84,30.06,9,3,15,0.00
2013-7-26,83,64,53,61,54,51,92,74,45,30.25,30.14,8,3,13,0.00
2013-7-27,82,64,54,60,55,52,92,75,47,30.19,30.00,14,3,14,0.00
2013-7-28,79,61,53,60,54,51,92,78,50,30.04,29.94,8,3,15,0.00
2013-7-29,77,61,54,59,54,51,90,78,51,30.18,29.99,8,2,12,0.00
2013-7-30,78,62,54,60,54,51,91,77,52,30.26,30.17,8,3,12,0.00
2013-7-31,85,65,54,61,55,51,95,73,40,30.24,30.09,8,2,10,0.00
2013-8-1,88,68,48,57,52,45,93,63,33,30.20,30.07,8,2,13,0.00
2013-8-2,89,69,48,58,52,46,90,60,25,30.13,29.99,8,2,13,0.00
2013-8-3,108,58,0,62,53,47,92,64,40,30.12,30.03,11,3,56,0.00
2013-8-4,87,60,0,62,56,23,87,46,40,30.16,29.80,98,4,98,0.00
2013-8-5,79,62,53,60,54,9,94,77,48,29.95,29.83,9,3,12,0.09
2013-8-6,80,62,53,59,53,50,93,76,46,29.97,29.87,9,2,15,0.00
2013-8-7,67,59,57,56,53,52,85,80,67,30.01,29.95,2,1,4,0.00
2013-8-8,81,65,55,61,57,52,92,76,49,29.95,29.83,9,2,13,0.00
2013-8-9,79,63,53,60,55,51,94,77,49,29.91,29.81,8,3,14,0.00
2013-8-10,82,66,57,61,56,53,90,74,47,29.96,29.88,7,2,11,0.00
2013-8-11,85,66,56,62,57,53,95,76,43,29.94,29.81,9,3,12,0.00
2013-8-12,86,65,54,60,55,51,95,73,36,29.91,29.82,8,2,11,0.00
2013-8-13,98,71,53,61,54,45,95,63,17,29.90,29.78,8,2,12,0.00
2013-8-14,97,72,50,61,54,47,91,60,22,29.88,29.75,9,2,11,0.00
2013-8-15,95,74,55,66,60,52,93,67,35,29.86,29.78,10,2,14,0.00
2013-8-16,96,74,59,67,60,55,95,68,26,29.89,29.81,7,2,12,0.00
2013-8-17,94,73,54,62,57,51,91,62,32,29.89,29.72,6,1,10,0.00
2013-8-18,101,77,56,64,58,53,90,58,26,29.79,29.65,7,2,11,0.00
2013-8-19,94,73,60,65,59,56,88,63,35,29.79,29.69,6,2,10,0.00
2013-8-20,88,68,59,63,58,56,90,74,37,29.82,29.71,7,3,12,0.00
2013-8-21,83,66,56,60,56,51,88,72,44,29.86,29.75,9,3,99,0.00
2013-8-22,82,65,54,60,55,51,91,73,45,31.04,29.78,9,3,12,0.00
2013-8-23,85,68,57,61,56,53,87,69,43,29.84,29.68,9,2,12,0.00
2013-8-24,97,69,51,78,56,32,92,66,30,29.78,29.69,14,3,14,0.00
2013-8-25,86,70,-32,65,59,-44,90,71,44,29.85,29.77,9,2,13,0.11
2013-8-26,92,72,60,63,58,53,95,67,31,29.92,29.77,8,2,11,0.00
2013-8-27,94,71,51,60,55,48,91,62,26,29.82,29.68,8,2,10,0.00
2013-8-28,90,70,57,66,60,55,96,74,42,29.84,29.75,9,2,12,0.00
2013-8-29,94,73,61,66,62,59,93,72,37,29.96,29.84,10,2,13,0.00
2013-8-30,102,77,56,65,59,53,94,61,22,29.94,29.77,7,2,10,0.00
2013-8-31,80,63,54,60,55,51,90,78,49,29.88,29.83,4,0,4,0.00
2013-9-4,56,55,54,52,51,50,89,87,85,30.11,30.08,1,0,2,0.00
2013-9-5,91,74,53,60,50,40,91,48,17,30.14,30.04,9,3,13,0.00
2013-9-6,101,77,54,56,47,39,79,43,12,30.11,29.95,8,1,11,0.00
2013-9-7,102,77,53,56,48,32,85,48,10,30.10,29.91,7,2,11,0.00
2013-9-8,98,69,52,59,53,46,90,63,18,30.03,29.88,7,1,10,0.00
2013-9-9,100,77,59,59,56,55,86,54,24,29.92,29.80,8,3,8,0.00
2013-9-10,77,65,58,61,58,54,92,81,59,30.05,29.87,10,3,10,0.00
2013-9-11,73,66,62,62,60,59,93,83,67,30.14,30.04,5,1,5,0.00
2013-9-12,86,69,60,65,60,56,90,75,48,30.13,29.99,7,2,7,0.00
2013-9-13,87,63,56,62,55,52,96,77,37,30.15,29.88,8,1,14,0.00
2013-9-14,87,66,54,61,56,50,95,74,41,30.01,29.88,7,2,11,0.00
2013-9-15,86,67,51,61,56,48,93,72,40,30.04,29.96,7,2,12,0.00
2013-9-16,92,72,58,62,58,53,97,65,31,30.09,29.92,6,3,11,0.00
2013-9-17,84,68,52,58,52,49,93,61,32,30.08,29.98,10,4,17,0.00
2013-9-18,92,70,56,52,47,-45,75,49,12,30.11,29.99,19,3,102,0.00
2013-9-19,102,75,53,56,48,32,85,51,10,30.15,29.92,7,2,11,0.00
2013-9-20,84,63,46,63,54,42,96,76,43,30.02,29.96,10,2,15,0.01
2013-9-21,78,64,53,64,57,50,98,81,43,30.09,29.95,6,2,10,0.00
2013-9-22,82,64,47,57,49,43,97,66,26,30.20,30.08,9,1,12,0.00
2013-9-23,92,70,51,63,55,48,92,65,33,30.21,30.07,5,1,9,0.00
2013-9-24,86,67,54,58,51,45,91,62,25,30.16,30.06,10,2,14,0.00
2013-9-25,78,62,47,52,44,38,90,57,24,30.87,30.00,11,3,17,0.00
2013-9-26,89,65,50,45,40,26,68,45,11,30.20,30.03,8,1,11,0.00
2013-9-27,88,66,50,48,39,23,76,46,10,30.29,30.17,8,0,11,0.00
2013-9-28,89,64,45,55,43,22,84,55,10,30.28,30.17,8,1,12,0.00
2013-9-29,77,63,54,65,59,51,97,87,65,30.28,30.22,5,0,9,0.01
2013-9-30,83,66,52,69,62,47,98,86,59,30.24,30.15,6,1,8,0.00
2013-10-1,86,63,45,54,47,42,95,62,24,30.20,30.08,6,1,11,0.00
2013-10-2,86,66,50,50,44,30,84,53,15,30.20,30.10,9,2,14,0.00
2013-10-4,101,70,56,55,46,14,85,56,10,29.99,29.67,10,2,12,0.02
2013-10-5,97,67,44,39,31,19,63,32,10,30.10,29.98,3,0,11,0.00
2013-10-6,95,64,43,40,34,22,71,41,10,30.03,29.88,3,0,6,0.00
2013-10-7,92,64,43,46,37,24,74,46,10,29.91,29.73,2,0,8,0.00
2013-10-8,87,64,49,49,44,37,83,53,20,29.81,29.60,9,1,11,0.00
2013-10-9,86,64,52,44,40,30,71,46,14,29.66,29.50,8,2,12,0.00
2013-10-10,83,60,46,52,44,39,87,59,27,29.91,29.65,5,1,10,0.00
2013-10-11,77,55,45,52,47,42,98,77,37,30.00,29.87,8,1,9,0.00
2013-10-12,81,58,41,53,46,40,98,69,37,29.91,29.76,7,1,13,0.00
2013-10-13,88,60,42,50,42,31,92,58,15,29.97,29.82,9,1,14,0.00
2013-10-14,93,60,41,48,39,29,88,55,12,30.02,29.88,7,0,11,0.00
2013-10-15,98,62,41,44,34,22,82,47,10,29.95,29.82,6,0,8,0.00
2013-10-16,94,61,39,42,33,22,80,44,10,29.99,29.89,4,0,8,0.00
2013-10-17,96,62,40,42,35,26,77,45,10,29.99,29.83,6,0,9,0.00
2013-10-18,89,60,39,45,39,34,85,55,15,29.95,29.86,6,0,10,0.00
2013-10-19,100,61,39,48,40,28,90,56,10,29.98,29.86,4,0,6,0.00
2013-10-20,89,58,39,50,43,36,90,65,19,29.93,29.78,5,1,8,0.00
2013-10-21,88,58,46,55,48,44,97,75,31,30.60,29.78,4,0,7,0.00
2013-10-22,90,58,45,55,48,42,97,74,25,29.93,29.79,6,1,8,0.00
2013-10-23,86,56,44,56,48,43,98,79,33,29.88,29.76,6,1,10,0.00
2013-10-24,80,55,45,55,48,42,96,81,38,30.01,29.87,4,0,8,0.00
2013-10-25,84,55,39,54,46,38,96,74,33,30.07,29.97,2,0,6,0.00
2013-10-26,96,60,39,52,44,30,94,64,16,30.05,29.89,4,0,7,0.00
2013-10-27,80,53,42,56,46,38,97,78,39,29.94,29.52,7,1,11,0.00
2013-10-28,77,55,41,47,43,39,91,67,30,29.73,29.55,6,1,12,0.00
2013-10-29,75,54,40,51,44,38,95,74,39,30.60,29.72,5,0,8,0.00
2013-10-30,78,53,37,51,42,35,94,70,35,30.05,29.95,7,0,9,0.00
2013-10-31,88,56,38,49,42,35,92,65,25,30.08,29.94,4,0,7,0.00
2013-11-1,89,58,41,51,43,38,92,62,24,30.05,29.90,3,0,6,0.00
2013-11-2,79,58,42,51,43,36,88,62,27,29.93,29.78,9,2,19,0.00
2013-11-3,67,55,46,40,35,27,68,47,24,29.95,29.83,12,5,17,0.00
2013-11-4,51,47,45,38,35,34,71,65,53,29.91,29.82,5,1,8,0.00
2013-11-5,82,56,47,40,37,32,68,51,18,30.12,29.99,2,0,2,0.00
2013-11-6,80,59,45,48,41,36,85,56,26,30.16,30.04,5,0,8,0.00
2013-11-7,80,60,48,49,42,38,82,56,24,30.08,29.94,4,0,7,0.00
2013-11-8,80,56,42,54,44,32,91,68,21,29.99,29.82,6,1,9,0.00
2013-11-9,79,54,38,50,43,35,92,69,29,29.95,29.83,7,0,9,0.00
2013-11-10,71,52,43,53,46,40,95,79,49,30.02,29.91,4,0,7,0.00
2013-11-11,69,55,42,51,47,40,94,77,49,30.08,29.97,3,0,5,0.00
2013-11-12,78,60,48,51,47,42,83,66,32,30.18,30.05,6,0,11,0.00
2013-11-13,83,58,42,55,47,40,92,73,36,30.16,29.98,6,0,8,0.00
2013-11-14,67,54,47,54,46,34,97,78,43,30.02,29.78,5,1,10,0.17
2013-11-15,74,56,42,41,38,33,77,54,24,29.78,29.59,7,1,11,0.00
2013-11-16,70,52,39,46,41,34,88,68,40,29.82,29.66,9,2,16,0.00
2013-11-17,66,49,38,50,43,36,95,80,56,29.99,29.81,4,0,7,0.00
2013-11-18,61,49,37,49,43,35,94,82,62,30.06,29.97,4,0,6,0.01
2013-11-19,73,57,51,56,47,13,99,84,10,30.00,29.82,2,0,4,0.00
2013-11-20,73,59,53,61,50,13,99,84,10,29.82,29.74,5,1,8,0.00
2013-11-21,90,58,50,52,28,2,99,48,10,29.97,29.79,20,6,25,0.23
2013-11-22,77,67,58,16,8,2,10,10,10,29.96,29.83,19,8,28,0.00
2013-11-23,72,60,38,33,20,1,69,26,10,30.05,29.88,14,2,20,0.00
2013-11-24,68,47,33,43,35,27,86,65,32,30.19,30.03,1,0,6,0.00
2013-11-25,68,47,34,44,38,31,92,73,39,30.26,30.18,0,0,0,0.00
2013-11-26,64,48,37,44,40,34,91,75,47,30.21,29.98,0,0,0,0.00
2013-11-27,70,49,36,46,40,33,93,73,40,29.98,29.76,1,0,5,0.00
2013-11-28,74,51,38,47,40,35,92,70,33,30.01,29.81,4,0,8,0.00
2013-11-29,71,50,37,46,40,34,92,72,38,30.16,30.00,1,0,6,0.00
2013-11-30,72,52,41,47,42,37,92,73,37,30.21,30.11,0,0,0,0.00
2013-12-1,73,51,36,50,42,34,95,75,42,30.27,30.14,3,0,4,0.00
2013-12-2,67,51,36,51,44,34,96,79,51,30.17,29.86,8,1,14,0.00
2013-12-3,59,51,41,51,33,25,89,54,29,29.88,29.77,15,2,17,0.00
2013-12-4,56,40,29,34,27,22,86,62,28,30.03,29.88,1,0,6,0.00
2013-12-5,54,36,25,31,24,18,85,66,28,30.09,30.01,1,0,4,0.00
2013-12-6,43,33,23,42,30,20,97,87,67,30.10,29.83,0,0,0,0.00
2013-12-7,49,37,28,40,29,23,99,76,43,30.21,29.85,11,1,17,0.00
2013-12-8,50,34,26,30,24,20,88,69,32,30.26,30.17,0,0,4,0.00
2013-12-9,54,34,22,30,23,19,89,67,30,30.37,30.24,2,0,7,0.00
2013-12-10,57,36,24,31,25,20,88,68,30,30.36,30.15,0,0,0,0.00
2013-12-11,61,39,26,36,29,22,90,71,33,30.18,30.11,0,0,3,0.00
2013-12-12,61,40,26,38,30,24,92,71,33,30.20,30.10,0,0,4,0.00
2013-12-13,65,42,28,40,32,25,91,72,36,30.27,30.17,0,0,0,0.00
2013-12-14,68,44,30,43,35,28,94,74,36,30.34,30.23,2,0,6,0.00
2013-12-15,65,42,29,43,34,27,94,76,41,30.32,30.18,0,0,0,0.00
2013-12-16,66,44,32,42,35,29,94,73,38,30.19,30.06,4,0,6,0.00
2013-12-17,67,45,32,43,36,30,93,75,39,30.12,29.97,0,0,0,0.00
2013-12-18,63,47,35,47,39,-7,92,76,46,29.97,29.68,8,0,88,0.00
2013-12-19,65,52,45,39,30,13,72,47,17,29.89,29.65,9,2,14,0.00
2013-12-20,68,52,36,41,26,-6,62,42,12,29.95,29.86,10,1,14,0.00
2013-12-21,69,57,49,47,45,40,81,66,43,30.03,29.88,12,1,21,0.00
2013-12-22,70,50,39,46,41,35,93,74,42,30.24,30.02,3,0,8,0.06
2013-12-23,70,48,34,47,39,32,94,73,39,30.34,30.23,0,0,0,0.00
2013-12-24,72,49,36,48,40,34,93,74,39,30.29,30.14,0,0,0,0.00
2013-12-25,70,46,32,43,36,30,95,72,28,30.25,30.13,0,0,0,0.00
2013-12-26,70,45,30,40,33,27,91,69,27,30.20,30.09,0,0,0,0.00
2013-12-27,59,42,32,39,33,28,88,73,45,30.18,30.07,0,0,0,0.00
2013-12-28,73,46,28,39,31,26,90,63,24,30.08,29.95,0,0,0,0.00
2013-12-29,69,45,32,35,29,25,80,57,19,30.13,30.01,2,0,4,0.00
2013-12-30,65,44,29,37,31,25,85,63,32,30.19,30.10,0,0,3,0.00
2013-12-31,65,44,35,40,33,30,88,68,34,30.22,30.09,0,0,0,0.00
2014-1-1,68,45,30,39,32,27,90,65,25,30.14,30.06,0,0,2,0.00
2014-1-2,67,47,34,41,35,30,87,66,36,30.12,29.99,0,0,0,0.00